| time (UTC) | temp C | wind direction | speed KPH | gust KPH | rain 1hr cm | rain 24hr cm | rain mn cm | humidity % | barometer mb |
| 20260510191510 | 28 | 191 | 0.0 | 4.8 | 0.00 | 1.30 | 0.00 | 74 | 1015.1 |
| 20260510190008 | 28 | 167 | 0.0 | 4.8 | 0.00 | 1.30 | 0.00 | 73 | 1015.1 |
| 20260510184508 | 28 | 30 | 0.0 | 4.8 | 0.00 | 1.70 | 0.00 | 76 | 1015.3 |
| 20260510183007 | 29 | 185 | 0.0 | 4.8 | 0.00 | 1.70 | 0.00 | 76 | 1015.6 |
| 20260510181505 | 28 | 182 | 0.0 | 6.4 | 0.00 | 1.70 | 0.00 | 76 | 1015.7 |
| 20260510180002 | 27 | 92 | 0.0 | 1.6 | 0.00 | 1.70 | 0.00 | 77 | 1015.8 |
| 20260510174502 | 27 | 169 | 0.0 | 1.6 | 0.00 | 1.88 | 0.00 | 76 | 1016.0 |
| 20260510173058 | 27 | 176 | 0.0 | 0.0 | 0.00 | 1.88 | 0.00 | 77 | 1016.1 |
| 20260510171556 | 26 | 250 | 0.0 | 1.6 | 0.00 | 1.88 | 0.00 | 81 | 1016.3 |
| 20260510170054 | 25 | 242 | 0.0 | 1.6 | 0.00 | 1.88 | 0.00 | 82 | 1016.4 |
| 20260510164550 | 25 | 65 | 0.0 | 1.6 | 0.00 | 2.08 | 0.00 | 90 | 1016.6 |
| 20260510163053 | 23 | 25 | 0.0 | 1.6 | 0.00 | 2.08 | 0.00 | 96 | 1016.6 |
| 20260510161542 | 22 | 180 | 0.0 | 1.6 | 0.00 | 2.08 | 0.00 | 96 | 1016.6 |
| 20260510160042 | 22 | 179 | 0.0 | 1.6 | 0.00 | 2.08 | 0.00 | 96 | 1016.7 |
| 20260510154537 | 21 | 319 | 0.0 | 1.6 | 0.00 | 2.36 | 0.00 | 96 | 1016.7 |
| 20260510153034 | 21 | 325 | 0.0 | 1.6 | 0.00 | 2.36 | 0.00 | 96 | 1016.8 |
| 20260510151531 | 21 | 271 | 0.0 | 1.6 | 0.00 | 2.36 | 0.00 | 96 | 1016.8 |
| 20260510150029 | 21 | 317 | 0.0 | 0.0 | 0.00 | 2.36 | 0.00 | 96 | 1016.7 |
| 20260510144529 | 21 | 315 | 0.0 | 0.0 | 0.00 | 2.84 | 0.00 | 96 | 1016.8 |
| 20260510143022 | 20 | 323 | 0.0 | 0.0 | 0.00 | 2.84 | 0.00 | 96 | 1017.0 |
| 20260510141520 | 20 | 323 | 0.0 | 0.0 | 0.00 | 2.84 | 0.00 | 96 | 1016.9 |
| 20260510140015 | 20 | 254 | 0.0 | 0.0 | 0.00 | 2.84 | 0.00 | 96 | 1016.8 |
| 20260510134514 | 20 | 254 | 0.0 | 0.0 | 0.00 | 3.15 | 0.00 | 96 | 1016.8 |
| 20260510133012 | 20 | 254 | 0.0 | 0.0 | 0.00 | 3.15 | 0.00 | 96 | 1016.6 |
| 20260510131509 | 20 | 254 | 0.0 | 0.0 | 0.00 | 3.15 | 0.00 | 96 | 1016.4 |
| 20260510130008 | 19 | 254 | 0.0 | 0.0 | 0.00 | 3.15 | 0.00 | 96 | 1016.2 |
| 20260510124506 | 19 | 253 | 0.0 | 3.2 | 0.00 | 6.17 | 0.00 | 95 | 1016.2 |
| 20260510123005 | 19 | 242 | 0.0 | 0.0 | 0.00 | 6.17 | 0.00 | 96 | 1015.8 |
| 20260510121600 | 18 | 242 | 0.0 | 0.0 | 0.00 | 6.17 | 0.00 | 96 | 1015.5 |
| 20260510120057 | 18 | 242 | 0.0 | 0.0 | 0.00 | 6.17 | 0.00 | 95 | 1015.2 |
| 20260510114557 | 18 | 242 | 0.0 | 0.0 | 0.00 | 6.17 | 0.00 | 95 | 1015.0 |
| 20260510113051 | 18 | 242 | 0.0 | 0.0 | 0.00 | 6.17 | 0.00 | 95 | 1014.6 |
| 20260510111548 | 18 | 242 | 0.0 | 0.0 | 0.00 | 6.17 | 0.00 | 95 | 1014.3 |
| 20260510110051 | 18 | 242 | 0.0 | 0.0 | 0.00 | 6.17 | 0.00 | 95 | 1014.1 |
| 20260510104543 | 18 | 242 | 0.0 | 0.0 | 0.00 | 6.17 | 0.00 | 95 | 1013.7 |
| 20260510103047 | 18 | 242 | 0.0 | 0.0 | 0.00 | 6.17 | 0.00 | 95 | 1013.5 |
| 20260510101540 | 18 | 242 | 0.0 | 0.0 | 0.00 | 6.17 | 0.00 | 95 | 1013.4 |
| 20260510100057 | 18 | 242 | 0.0 | 0.0 | 0.00 | 6.17 | 0.00 | 95 | 1013.3 |
| 20260510094541 | 18 | 242 | 0.0 | 0.0 | 0.00 | 6.17 | 0.00 | 95 | 1013.0 |
| 20260510093046 | 18 | 242 | 0.0 | 0.0 | 0.00 | 6.17 | 0.00 | 96 | 1013.1 |
| 20260510091539 | 18 | 242 | 0.0 | 0.0 | 0.00 | 6.17 | 0.00 | 95 | 1013.1 |
| 20260510090038 | 19 | 242 | 0.0 | 0.0 | 0.00 | 6.17 | 0.00 | 95 | 1013.3 |
| 20260510084535 | 19 | 242 | 0.0 | 0.0 | 0.00 | 6.22 | 0.00 | 95 | 1013.3 |
| 20260510083042 | 19 | 242 | 0.0 | 0.0 | 0.00 | 6.22 | 0.00 | 95 | 1013.2 |
| 20260510081536 | 19 | 242 | 0.0 | 0.0 | 0.00 | 6.22 | 0.00 | 95 | 1013.1 |
| 20260510080031 | 19 | 242 | 0.0 | 0.0 | 0.00 | 6.22 | 0.00 | 95 | 1012.9 |
| 20260510074531 | 19 | 242 | 0.0 | 0.0 | 0.00 | 6.58 | 0.00 | 95 | 1012.7 |
| 20260510073029 | 19 | 242 | 0.0 | 0.0 | 0.00 | 6.58 | 0.00 | 95 | 1012.7 |
| 20260510071536 | 19 | 242 | 0.0 | 0.0 | 0.00 | 6.58 | 0.00 | 95 | 1012.5 |
| 20260510070026 | 20 | 242 | 0.0 | 0.0 | 0.00 | 6.58 | 0.00 | 95 | 1012.6 |
| 20260510064524 | 20 | 242 | 0.0 | 0.0 | 0.00 | 6.65 | 0.00 | 96 | 1012.7 |
| 20260510063025 | 20 | 242 | 0.0 | 0.0 | 0.00 | 6.65 | 0.00 | 95 | 1012.9 |
| 20260510061536 | 20 | 242 | 0.0 | 0.0 | 0.00 | 6.65 | 0.00 | 95 | 1013.0 |
| 20260510060021 | 20 | 242 | 0.0 | 0.0 | 0.00 | 6.65 | 0.00 | 95 | 1013.0 |
| 20260510054520 | 20 | 242 | 0.0 | 0.0 | 0.00 | 6.78 | 0.00 | 95 | 1013.0 |
| 20260510053019 | 20 | 242 | 0.0 | 0.0 | 0.00 | 6.78 | 0.00 | 95 | 1013.0 |
| 20260510051518 | 20 | 242 | 0.0 | 0.0 | 0.00 | 6.78 | 0.00 | 95 | 1013.1 |
| 20260510050014 | 20 | 242 | 0.0 | 0.0 | 0.00 | 6.78 | 0.00 | 95 | 1013.0 |
| 20260510044514 | 20 | 242 | 0.0 | 0.0 | 0.00 | 6.96 | 6.78 | 95 | 1012.9 |
| 20260510043019 | 20 | 242 | 0.0 | 0.0 | 0.00 | 6.96 | 6.78 | 95 | 1012.8 |
| 20260510041515 | 20 | 242 | 0.0 | 0.0 | 0.00 | 6.96 | 6.78 | 95 | 1012.7 |
| 20260510040046 | 20 | 242 | 0.0 | 0.0 | 0.00 | 6.96 | 6.78 | 95 | 1013.0 |
| 20260510034546 | 20 | 242 | 0.0 | 0.0 | 0.00 | 6.96 | 6.78 | 95 | 1012.6 |
| 20260510033105 | 20 | 242 | 0.0 | 0.0 | 0.00 | 6.96 | 6.78 | 95 | 1013.0 |
| 20260510031550 | 20 | 242 | 0.0 | 0.0 | 0.00 | 6.96 | 6.78 | 95 | 1013.6 |
| 20260510030043 | 20 | 242 | 0.0 | 0.0 | 0.00 | 6.96 | 6.78 | 95 | 1013.3 |
| 20260510024546 | 20 | 242 | 0.0 | 0.0 | 0.00 | 6.96 | 6.78 | 95 | 1013.3 |
| 20260510023041 | 20 | 242 | 0.0 | 0.0 | 0.00 | 6.96 | 6.78 | 95 | 1012.9 |
| 20260510021540 | 20 | 242 | 0.0 | 0.0 | 0.00 | 6.96 | 6.78 | 95 | 1012.7 |
| 20260510020042 | 20 | 242 | 0.0 | 0.0 | 0.00 | 6.96 | 6.78 | 95 | 1013.0 |
| 20260510014539 | 20 | 242 | 0.0 | 0.0 | 0.03 | 6.99 | 6.78 | 95 | 1013.3 |
| 20260510013039 | 20 | 242 | 0.0 | 0.0 | 0.08 | 6.99 | 6.78 | 95 | 1012.5 |
| 20260510011550 | 20 | 242 | 0.0 | 0.0 | 0.08 | 6.99 | 6.78 | 95 | 1012.3 |
| 20260510010037 | 20 | 242 | 0.0 | 1.6 | 0.08 | 6.99 | 6.78 | 95 | 1011.9 |
| 20260510004542 | 20 | 161 | 0.0 | 0.0 | 0.08 | 6.96 | 6.76 | 95 | 1011.6 |
| 20260510003058 | 20 | 144 | 0.0 | 0.0 | 0.05 | 6.91 | 6.71 | 95 | 1012.3 |
| 20260510001540 | 20 | 212 | 0.0 | 0.0 | 0.08 | 6.91 | 6.71 | 95 | 1012.1 |
| 20260510000040 | 20 | 212 | 0.0 | 0.0 | 0.08 | 6.91 | 6.71 | 95 | 1011.3 |
| 20260509234547 | 20 | 212 | 0.0 | 0.0 | 0.08 | 6.88 | 6.68 | 95 | 1012.1 |
| 20260509233034 | 20 | 212 | 0.0 | 0.0 | 0.08 | 6.86 | 6.65 | 95 | 1011.8 |
| 20260509231545 | 20 | 271 | 0.0 | 0.0 | 0.08 | 6.83 | 6.63 | 95 | 1012.1 |
| 20260509230036 | 20 | 271 | 0.0 | 0.0 | 0.15 | 6.83 | 6.63 | 95 | 1012.2 |
| 20260509224535 | 20 | 271 | 0.0 | 0.0 | 0.18 | 7.06 | 6.60 | 95 | 1012.2 |
| 20260509223034 | 20 | 271 | 0.0 | 0.0 | 0.18 | 7.04 | 6.58 | 95 | 1011.6 |
| 20260509221531 | 20 | 271 | 0.0 | 0.0 | 0.15 | 7.01 | 6.55 | 95 | 1011.3 |
| 20260509220031 | 20 | 271 | 0.0 | 0.0 | 0.10 | 6.93 | 6.45 | 95 | 1012.2 |
| 20260509214531 | 20 | 271 | 0.0 | 0.0 | 0.08 | 7.06 | 6.40 | 95 | 1011.4 |
| 20260509213029 | 20 | 271 | 0.0 | 0.0 | 0.13 | 7.04 | 6.40 | 95 | 1011.3 |
| 20260509211528 | 20 | 271 | 0.0 | 0.0 | 0.20 | 7.04 | 6.40 | 95 | 1011.4 |
| 20260509210028 | 20 | 271 | 0.0 | 0.0 | 0.30 | 7.01 | 6.35 | 95 | 1011.4 |
| 20260509204529 | 20 | 273 | 0.0 | 0.0 | 0.38 | 7.54 | 6.35 | 95 | 1010.6 |
| 20260509203033 | 20 | 208 | 0.0 | 0.0 | 0.46 | 7.47 | 6.27 | 95 | 1011.7 |
| 20260509201525 | 20 | 237 | 0.0 | 0.0 | 0.56 | 7.39 | 6.20 | 95 | 1010.9 |
| 20260509200024 | 19 | 242 | 0.0 | 0.0 | 0.53 | 7.24 | 6.05 | 95 | 1012.3 |
| 20260509194528 | 19 | 244 | 0.0 | 0.0 | 0.66 | 7.59 | 5.97 | 95 | 1012.8 |
| 20260509193022 | 19 | 244 | 0.0 | 0.0 | 0.66 | 7.44 | 5.82 | 95 | 1012.6 |